Regional Weather Roundup
Issued by NWS Charleston, SC

Current Version | Previous Version | Graphics & Text | Print | Product List | Glossary On
Versions: 1 2 3 4 5 6 7 8 9 10 11 12 13 14 15 16 17 18 19 20 21 22 23 24 25 26 27 28 29 30 31 32 33 34 35 36 37 38 39 40 41 42 43 44 45 46 47 48
000 ASUS42 KCHS 211625 RWRCHS REGIONAL WEATHER ROUNDUP NATIONAL WEATHER SERVICE CHARLESTON SC 1100 AM EST TUE FEB 21 2017 NOTE: "FAIR" INDICATES FEW OR NO CLOUDS BELOW 12,000 FEET WITH NO SIGNIFICANT WEATHER AND/OR OBSTRUCTIONS TO VISIBILITY. NOT ALL STATIONS ARE QUALITY CONTROLLED. USE DATA WITH CAUTION... ESPECIALLY DEWPOINT OBSERVATIONS. SCZ027-030-031-034>040-042>050-211700- ...SOUTHEAST SOUTH CAROLINA... CITY SKY/WX TMP DP RH WIND PRES REMARKS N CHARLESTON NOT AVBL WATERFRONT PRK NOT AVBL MOUNT PLEASANT FAIR 66 57 72 NE7G17 30.18 JOHNS ISLAND FAIR 68 59 73 E9G16 30.16 PINOPOLIS NOT AVBL MONCKS CORNER PTSUNNY 66 52 59 SE7 30.17 SUMMERVILLE FAIR 68 54 60 E8 30.17 BEAUFORT MCAS NOT AVBL BEAUFORT ARPT PTSUNNY 70 59 68 E10G20 30.15 HILTON HEAD IS NOT AVBL WALTERBORO CLOUDY 66 55 68 E8 30.17 ALLENDALE PTSUNNY 66 55 68 E7 30.15 ...SOUTHERN MIDLANDS AND PEE DEE... CITY SKY/WX TMP DP RH WIND PRES REMARKS GEORGETOWN FAIR 64 52 63 E10 30.21 KINGSTREE FAIR 64 50 59 E10 30.19 ORANGEBURG NOT AVBL BARNWELL PTSUNNY 68 54 60 E12 30.16 AIKEN FAIR 64 50 59 SE10 30.19 MANNING NOT AVBL COLUMBIA NOT AVBL SUMTER NOT AVBL FLORENCE NOT AVBL MYRTLE BEACH NOT AVBL N MYRTLE BEACH NOT AVBL $$ GAZ063-065-086>088-099>101-113>116-118-119-134>141-150-211700- ...SOUTHEAST GEORGIA... CITY SKY/WX TMP DP RH WIND PRES REMARKS SAVANNAH ARPT NOT AVBL HUNTER AAF NOT AVBL FORT STEWART NOT AVBL STATESBORO FAIR 69 59 70 SE5 30.14 SYLVANIA FAIR N/A N/A N/A SE6 30.15 CLAXTON FAIR N/A N/A N/A NE6 30.13 ...CSRA...CENTRAL AND FAR SOUTHEAST GEORGIA... CITY SKY/WX TMP DP RH WIND PRES REMARKS THOMSON FAIR 67 58 73 SE8 30.19 AUGUSTA-BUSH NOT AVBL AUGUSTA-DANIEL NOT AVBL SWAINSBORO FAIR 70 59 68 SE13 30.14 VIDALIA FAIR 70 63 78 SE7 30.13 EASTMAN FAIR 70 51 51 SE6 30.14 HAZLEHURST FAIR 69 63 81 E9 30.10 ALMA NOT AVBL WAYCROSS CLOUDY 73 65 78 S7 30.12 JESUP FAIR 73 61 64 SE6 30.13 BAXLEY FAIR 72 64 78 SE9 30.11 BRUNSWICK FAIR 73 64 73 SE7 30.13 SAINT SIMONS NOT AVBL $$ SCZ027-028-034-036>038-045-046-048>050-GAZ119-141-211700- ...LAKE AND SUPPLEMENTAL COASTAL OBSERVATIONS... STATION/POSITION TIME TEMP WIND PRES WAVE SWELL AIR SEA DIR/SP/G HT/PER HT/PER/DIR (UTC) (F) (DEG/KT/KT) (MB) (FT/S) (FT/S/D) WINYAH BAY 1545 59 70/ 12 1022.0 LAKE MURRAY 1550 61 110/ 7/ 13 1021.7 ACE BASIN NERRS 1530 68 80/ 5 1021.0 FORT PULASKI 1600 63 60 80/ 10/ 12 1021.0 SAPELO ISLAND 1600 70 90/ 7 1020.0 $$ ANZ835-935-AMZ111-154-330-350-352-354-370-450-454-472-211700- ...C-MAN AND BUOY OBSERVATIONS... STATION/POSITION TIME TEMP WIND PRES WAVE SWELL AIR SEA DIR/SP/G HT/PER HT/PER/DIR (UTC) (F) (DEG/KT/KT) (MB) (FT/S) (FT/S/D) BUOY 41004 1550 69 66 90/ 16/ 17 1021.4 4/ 6 2/130/15 BUOY 41008 1550 64 62 50/ 6/ 8 1020.1 1/ 4 2/ 60/ 4 FOLLY BEACH CMAN NOT AVBL CAPERS NEARSHORE NOT AVBL FRIPP NEARSHORE 1608 63 61 80/ 12/ 14 1020.4 STATION/POSITION TIME TEMP WIND PRES WAVE SWELL AIR SEA DIR/SP/G HT/PER HT/PER/DIR (UTC) (F) (DEG/KT/KT) (MB) (FT/S) (FT/S/D) 5E ST. MARYS GA 1600 64 N/A 1/ 4 FRYING PAN BUOY 1610 62 67 20/ 14/ 16 1023.1 BUOY 41025 NOT AVBL CAPE LOOKOUT NC NOT AVBL BUOY 41002 NOT AVBL BUOY 41010 NOT AVBL ST AUGUSTINE FL NOT AVBL $$

USA.gov is the U.S. government's official web portal to all federal, state and local government web resources and services.